CW5602 Weather Reports


time (UTC)temp
C
wind
direction
speed
KPH
gust
KPH
rain 1hr
cm
rain 24hr
cm
rain mn
cm
humidity
%
barometer
mb
20260509013204 12 211 3.2 4.8 0.00 0.00 0.00 87 1012.7
20260509010204 12 232 3.2 4.8 0.00 0.00 0.00 87 1012.7
20260509003203 13 232 3.2 4.8 0.00 0.00 0.00 86 1012.4
20260508233704 15 223 1.6 4.8 0.00 0.00 0.00 81 1012.0
20260508230703 15 223 0.0 1.6 0.00 0.00 0.00 80 1011.8
20260508230204 15 223 1.6 4.8 0.00 0.00 0.00 79 1012.0
20260508223703 16 111 1.6 4.8 0.00 0.00 0.00 73 1011.8
20260508220703 16 32 1.6 4.8 0.00 0.00 0.00 65 1012.0
20260508213704 16 339 1.6 8.0 0.00 0.00 0.00 65 1012.0
20260508213204 16 359 4.8 12.9 0.00 0.00 0.00 64 1012.0
20260508210203 17 170 3.2 9.7 0.00 0.00 0.00 70 1011.9
20260508203203 17 351 3.2 9.7 0.00 0.00 0.00 71 1012.2
20260508200703 17 181 0.0 8.0 0.00 0.00 0.00 61 1012.3
20260508193204 18 335 1.6 11.3 0.00 0.00 0.00 59 1013.1
20260508190703 18 64 1.6 4.8 0.00 0.00 0.00 49 1013.5
20260508190203 18 87 4.8 20.9 0.00 0.00 0.00 52 1013.4
20260508183204 18 43 3.2 19.3 0.00 0.00 0.00 45 1013.7
20260508180204 18 344 4.8 19.3 0.00 0.00 0.00 52 1013.8
20260508160203 14 340 3.2 19.3 0.00 0.00 0.00 72 1015.3
20260508153205 12 335 3.2 12.9 0.00 0.00 0.00 74 1015.7
20260508150204 11 23 0.0 4.8 0.00 0.00 0.00 77 1015.9
20260508140203 8 337 1.6 8.0 0.00 0.00 0.00 82 1016.4
20260508133204 8 251 0.0 4.8 0.00 0.00 0.00 87 1016.4
20260508130704 7 304 0.0 3.2 0.00 0.00 0.00 92 1016.5
20260508130203 7 304 1.6 4.8 0.00 0.00 0.00 93 1016.4
20260508123704 6 198 0.0 0.0 0.00 0.00 0.00 93 1016.2
20260508123204 6 198 0.0 0.0 0.00 0.00 0.00 93 1016.1
20260508120704 6 198 0.0 0.0 0.00 0.00 0.00 94 1015.8
20260508120205 6 198 0.0 0.0 0.00 0.00 0.00 94 1015.8
20260508110704 5 198 0.0 1.6 0.00 0.15 0.00 94 1014.9
20260508110203 5 198 3.2 4.8 0.00 0.20 0.00 95 1014.8
20260508103203 5 198 3.2 4.8 0.00 0.43 0.00 95 1014.5
20260508093704 6 198 3.2 4.8 0.00 0.46 0.00 94 1013.9
20260508090703 6 198 3.2 4.8 0.00 0.46 0.00 94 1013.9
20260508090203 6 198 3.2 4.8 0.00 0.46 0.00 93 1013.9
20260508070203 7 180 3.2 4.8 0.00 0.46 0.00 94 1013.3
20260508060703 7 180 3.2 4.8 0.00 0.48 0.00 96 1013.1
20260508053703 7 180 0.0 0.0 0.00 0.48 0.00 94 1012.8
20260508053203 7 180 1.6 4.8 0.00 0.48 0.00 94 1012.8
20260508050704 7 178 1.6 4.8 0.00 0.48 0.00 94 1012.9
20260508050203 7 178 0.0 4.8 0.00 0.51 0.00 94 1012.9
20260508040704 8 178 4.8 4.8 0.00 0.71 0.00 94 1012.5
20260508040204 8 178 3.2 4.8 0.00 0.71 0.00 94 1012.4
20260508033704 8 219 3.2 4.8 0.00 0.86 0.71 94 1012.5
20260508033204 8 219 3.2 4.8 0.00 0.86 0.71 95 1012.6
20260508030203 8 219 3.2 4.8 0.00 0.86 0.71 94 1012.5
20260508023203 8 219 3.2 4.8 0.00 0.86 0.71 94 1012.3
20260508020704 8 219 3.2 4.8 0.00 0.86 0.71 95 1011.7